PST,Max TemperatureF,Mean TemperatureF,Min TemperatureF,Max Dew PointF,MeanDew PointF,Min DewpointF,Max Humidity, Mean Humidity, Min Humidity, Max Sea Level PressureIn, Mean Sea Level PressureIn, Min Sea Level PressureIn, Max VisibilityMiles, Mean VisibilityMiles, Min VisibilityMiles, Max Wind SpeedMPH, Mean Wind SpeedMPH, Max Gust SpeedMPH,PrecipitationIn, CloudCover, Events, WindDirDegrees
2013-11-1,75,52,29,25,22,16,61,38,15,30.27,30.17,30.09,10,10,10,16,5,20,0.00,0,,29
2013-11-2,76,53,30,28,24,17,56,35,14,30.12,30.00,29.88,10,10,10,22,6,24,0.00,0,,256
2013-11-3,72,58,44,39,35,28,71,48,24,29.90,29.84,29.79,10,10,10,33,19,40,0.00,0,,269
2013-11-4,66,53,39,37,27,23,66,43,20,30.04,29.88,29.77,10,10,10,26,9,33,0.00,0,,292
2013-11-5,63,46,28,24,13,2,63,37,11,30.31,30.22,30.05,10,10,10,21,6,25,0.00,0,,63
2013-11-6,69,47,25,11,7,3,42,26,9,30.42,30.34,30.28,10,10,2,18,5,22,0.00,0,,350
2013-11-7,72,52,31,18,13,7,36,24,12,30.32,30.21,30.09,10,10,10,9,2,10,0.00,0,,278
2013-11-8,74,51,28,30,17,8,41,26,11,30.14,30.06,29.97,10,10,10,14,4,16,0.00,0,,282
2013-11-9,74,54,33,23,15,10,50,30,9,30.13,30.08,30.03,10,10,10,12,3,12,0.00,0,,356
2013-11-10,72,51,30,17,14,9,39,26,12,30.24,30.17,30.12,10,10,10,9,3,12,0.00,0,,300
2013-11-11,76,53,30,19,15,8,41,27,12,30.25,30.20,30.13,10,10,10,14,4,16,0.00,0,,322
2013-11-12,71,55,38,19,14,9,31,21,11,30.32,30.25,30.22,10,10,10,9,2,10,0.00,0,,298
2013-11-13,78,55,31,30,18,8,41,25,9,30.25,30.16,30.07,10,10,10,14,3,16,0.00,0,,358
2013-11-14,77,56,34,30,23,15,48,31,13,30.11,29.97,29.75,10,10,10,21,5,25,0.00,0,,250
2013-11-15,66,58,49,46,38,30,77,53,29,29.74,29.70,29.64,10,10,8,29,18,33,0.00,0,,263
2013-11-16,61,53,45,44,42,38,80,65,49,29.91,29.80,29.72,10,10,10,30,18,38,0.00,0,,240
2013-11-17,64,50,35,42,34,28,92,61,30,30.14,30.04,29.92,10,10,10,15,5,18,0.00,0,,299
2013-11-18,66,49,31,46,36,26,83,60,37,30.20,30.12,30.06,10,10,10,20,5,24,0.00,0,,262
2013-11-19,65,54,43,45,41,36,80,60,39,30.03,29.98,29.89,10,10,10,37,17,43,0.00,0,,256
2013-11-20,64,57,50,48,45,40,89,69,48,29.93,29.88,29.83,10,10,10,29,18,37,0.00,1,,247
2013-11-21,58,51,43,51,46,37,96,84,72,29.99,29.89,29.81,10,8,2,24,9,30,1.30,8,Rain,22
2013-11-22,45,43,41,39,37,34,86,76,65,30.09,30.04,29.97,10,10,8,25,14,31,0.09,8,Rain,87
2013-11-23,47,43,39,40,39,37,92,84,76,30.19,30.12,30.07,10,10,10,13,5,17,0.06,7,Rain,92
2013-11-24,55,45,34,40,37,34,100,75,50,30.28,30.22,30.18,10,10,10,8,3,10,0.00,1,,354
2013-11-25,61,46,31,41,35,30,92,64,36,30.35,30.29,30.25,10,10,10,6,1,8,0.01,0,,317
2013-11-26,58,52,45,42,40,39,80,66,51,30.31,30.23,30.16,10,10,10,6,3,,0.00,0,,57
2013-11-27,61,50,38,40,37,34,89,65,40,30.15,30.06,29.97,10,10,10,14,4,17,0.00,0,,47
2013-11-28,58,46,33,40,36,32,89,68,47,30.13,30.05,29.98,10,10,10,9,3,12,0.00,2,,207
2013-11-29,56,47,38,42,38,35,92,74,56,30.27,30.22,30.13,10,10,10,8,2,10,T,6,Rain,206
2013-11-30,63,48,33,38,35,31,96,65,34,30.31,30.27,30.20,10,10,10,9,3,12,0.00,1,,290